Location: Codford Saint Peter
(51.1597°N, 2.0531°W)
Time: 15:23:43
(UTC+00:00)

Cosmos 1048 Rocket - Pass Details

Date: 18 September 2020
Orbit: 742 x 792 km, 74.0° (Epoch: 27 October)

Event Time Altitude Azimuth Distance (km) Brightness Sun altitude
Rises 19:22:18 0° 337° (NNW) 3,253 7.9 -11.3°
Reaches altitude 10° 19:24:44 10° 342° (NNW) 2,330 7.0 -11.6°
Maximum altitude 19:29:56 54° 60° (ENE) 946 4.2 -12.4°
Enters shadow 19:34:12 15° 135° (SE) 1,992 5.6 -13.0°
